Chatham, MA

2:20 PM EDT on May 27, 2017 (GMT -0400)
Chatham Municipal

Weather History for KCQX - November, 2014

Change the Weather History Date:

Tuesday, November 4, 2014

  Actual Average Record
Temperature  
Mean Temperature 48 °F -  
Max Temperature 57 °F 52 °F 67 °F (1977)
Min Temperature 39 °F 40 °F 32 °F (1998)
Degree Days  
Heating Degree Days 17    
Moisture  
Dew Point 38 °F    
Average Humidity 66    
Maximum Humidity 90    
Minimum Humidity 43    
Precipitation  
Precipitation 0.00 in - - ()
Sea Level Pressure  
Sea Level Pressure 30.12 in    
Wind  
Wind Speed 4 mph (SSW)    
Max Wind Speed 8 mph    
Max Gust Speed -    
Visibility 10 miles    
Events      
Averages and records for this station are not official NWS values.
T = Trace of Precipitation, MM = Missing Value Source: NWS Daily Summary

Daily Weather History Graph

Daily Weather History Graph

Search for Another Location

Airport or City:

Trip Planner

Search our weather history database for the weather conditions in past years. The results will help you decide how hot, cold, wet, or windy it might be!

Date:

Astronomy

Nov. 04, 2014 Rise Set
Actual Time 6:15 AM EST 4:30 PM EST
Civil Twilight 5:46 AM EST 4:59 PM EST
Nautical Twilight 5:13 AM EST 5:32 PM EST
Astronomical Twilight 4:41 AM EST 6:05 PM EST
Moon 3:17 PM EST (11/4) 3:27 AM EST (11/4)
Length of Visible Light 11h 13m
Length of Day
10h 15m
Waxing Gibbous, 94% of the Moon is Illuminated
Nov 4
Waxing Gibbous
Nov 6
Full
Nov 14
Last Quarter
Nov 22
New
Nov 29
First Quarter

Hourly Weather History & Observations

Time (EST) Temp. Windchill Dew Point Humidity Pressure Visibility Wind Dir Wind Speed Gust Speed Precip Events Conditions
12:52 AM 48.0 °F - 28.0 °F 46% 30.08 in 10.0 mi West 3.5 mph - N/A   Scattered Clouds
1:52 AM 46.9 °F - 28.0 °F 48% 30.07 in 10.0 mi Variable 4.6 mph - N/A   Clear
2:52 AM 42.1 °F - 30.0 °F 62% 30.08 in 10.0 mi Calm Calm - N/A   Clear
3:52 AM 41.0 °F 39.0 °F 30.9 °F 67% 30.09 in 10.0 mi West 3.5 mph - N/A   Partly Cloudy
4:52 AM 39.0 °F - 30.0 °F 70% 30.12 in 10.0 mi Calm Calm - N/A   Mostly Cloudy
5:52 AM 41.0 °F - 32.0 °F 70% 30.12 in 10.0 mi Calm Calm - N/A   Overcast
6:52 AM 42.1 °F 40.2 °F 33.1 °F 70% 30.13 in 10.0 mi NNW 3.5 mph - N/A   Clear
7:52 AM 50.0 °F - 37.0 °F 61% 30.15 in 10.0 mi Calm Calm - N/A   Clear
8:52 AM 52.0 °F - 39.9 °F 63% 30.15 in 10.0 mi SW 3.5 mph - N/A   Clear
9:52 AM 54.0 °F - 37.9 °F 55% 30.16 in 10.0 mi South 5.8 mph - N/A   Clear
10:52 AM 57.0 °F - 37.9 °F 49% 30.15 in 10.0 mi Variable 3.5 mph - N/A   Clear
11:52 AM 57.0 °F - 37.0 °F 47% 30.13 in 10.0 mi SSE 5.8 mph - N/A   Clear
12:52 PM 57.0 °F - 35.1 °F 44% 30.13 in 10.0 mi Variable 4.6 mph - N/A   Clear
1:52 PM 55.9 °F - 35.1 °F 45% 30.13 in 10.0 mi SSW 6.9 mph - N/A   Clear
2:52 PM 55.0 °F - 33.1 °F 43% 30.12 in 10.0 mi SSW 4.6 mph - N/A   Clear
3:52 PM 53.1 °F - 37.0 °F 55% 30.12 in 10.0 mi SSW 5.8 mph - N/A   Clear
4:52 PM 51.1 °F - 44.1 °F 77% 30.13 in 10.0 mi SSW 4.6 mph - N/A   Clear
5:52 PM 51.1 °F - 46.0 °F 83% 30.13 in 10.0 mi SW 3.5 mph - N/A   Clear
6:52 PM 51.1 °F - 46.9 °F 86% 30.14 in 10.0 mi SSW 5.8 mph - N/A   Clear
7:52 PM 51.1 °F - 46.9 °F 86% 30.13 in 10.0 mi South 3.5 mph - N/A   Clear
8:52 PM 51.1 °F - 48.0 °F 89% 30.13 in 10.0 mi SSW 5.8 mph - N/A   Clear
9:52 PM 53.1 °F - 48.9 °F 86% 30.12 in 10.0 mi SSW 6.9 mph - N/A   Clear
10:52 PM 54.0 °F - 51.1 °F 90% 30.09 in 10.0 mi SSW 6.9 mph - N/A   Clear
11:52 PM 53.1 °F - 50.0 °F 89% 30.09 in 10.0 mi SSW 8.1 mph - N/A   Clear